Simultaneous Nadir Overpasses (SNOs) Predictions

Prediction of SNOs between GOES-16 and METOP-C Satellite Orbit:

Table of predicted SNOs for the next 14.0 days since TLE Epoch: 10/6/2019
Index Date Time (GOES-16) GOES-16 Lat,Lon METOP-C Lat,Lon Distance(km) Time Diff (sec)
1 10/06/2019 14:39:01 -0.00, -75.20 0.49, -77.32 242.05 80
2 10/07/2019 14:21:02 -0.00, -75.20 -0.63, -72.33 327.14 80
3 10/09/2019 02:40:02 0.00, -75.20 -0.38, -76.93 196.76 80
4 10/10/2019 02:16:43 0.00, -75.20 0.74, -71.93 372.86 80
5 10/11/2019 14:35:34 -0.00, -75.22 0.29, -76.49 145.31 80
6 10/12/2019 14:17:35 -0.00, -75.23 -0.82, -71.50 424.75 80
7 10/14/2019 02:36:35 0.00, -75.24 -0.17, -76.10 97.80 80
8 10/15/2019 02:13:16 0.00, -75.25 0.95, -71.11 472.46 80
9 10/16/2019 14:32:07 -0.01, -75.27 0.10, -75.66 45.20 80
10 10/19/2019 02:30:28 0.01, -75.30 0.03, -75.27 3.58 80




NCC Satellite Simultaneous Nadir Overpasses (SNOs) Prediction Service
